Flag for China Weather past 2 weeks in Changchun, Jilin, China

Now
70 °F

Passing clouds.


Feels Like: 70 °F
Forecast: 57 / 81 °F
Wind: 8 mph from Northwest

Location: Changchun Airport

Current Time: May 30, 2015 at 6:53:48 PM

Latest Report: May 30, 2015 at 6:00 PM


Visibility: N/A

Pressure: 29.65 "Hg

Humidity: 18%

Dew point: 25 °F

Location of ChangchunLocation

Historic Weather in Changchun — Graph

°F

Changchun temperature yesterday

Maximum temperature yesterday: 70 °F (at 12:00 AM)
Minimum temperature yesterday: 59 °F (at 11:00 PM)
Average temperature yesterday: 65 °F

Past Weeks' High & Low Weather Summary

 TemperatureHumidityPressure
High91 °F (May 24, 2:00 PM)100% (May 17, 11:00 PM)29.80 "Hg (May 17, 11:00 PM)
Low45 °F (May 20, 4:00 AM)11% (May 22, 2:00 PM)29.45 "Hg (May 18, 12:00 AM)
Average66 °F49%29.65 "Hg
* Reported May 15 5:00 PM — May 30 5:00 PM, Changchun, Weather by CustomWeather, © 2015

Note: Actual official high and low records may vary slightly from our data, if they occured in-between our weather recording intervals... More about our weather records

Advertising

Changchun weather history for previous 24 hours

 ConditionsComfort  
Time TempWeatherWind HumidityBarometerVisibility
5:00 PM
Sat, May 30
72 °FScattered clouds.6 mph17%29.65 "HgN/A
4:00 PM70 °FScattered clouds.6 mph20%29.68 "HgN/A
3:00 PM70 °FScattered clouds.6 mph21%29.68 "HgN/A
2:00 PM72 °FScattered clouds.3 mph23%29.68 "HgN/A
1:00 PM70 °FScattered clouds.6 mph29%29.71 "HgN/A
12:00 PM64 °FScattered clouds.8 mph40%29.71 "HgN/A
11:00 AM68 °FScattered clouds.6 mph40%29.74 "HgN/A
10:00 AM64 °FScattered clouds.8 mph46%29.74 "HgN/A
9:00 AM64 °FScattered clouds.6 mph46%29.74 "HgN/A
8:00 AM63 °FPassing clouds.6 mph49%29.74 "HgN/A
7:00 AM59 °FPassing clouds.3 mph59%29.71 "HgN/A
6:00 AM55 °FPassing clouds.6 mph59%29.71 "HgN/A
5:00 AM54 °FPassing clouds.8 mph58%29.68 "HgN/A
4:00 AM54 °FClear.6 mph54%29.68 "Hg10 mi
3:00 AM55 °FPassing clouds.8 mph51%29.68 "HgN/A
2:00 AM55 °FClear.6 mph51%29.68 "Hg10 mi
1:00 AM59 °FClear.6 mph45%29.68 "Hg10 mi
12:00 AM61 °FClear.6 mph42%29.71 "Hg10 mi
11:00 PM
Fri, May 29
59 °FFog.6 mph82%29.71 "Hg2 mi
10:00 PM61 °FFog.6 mph83%29.68 "Hg2 mi
9:00 PM61 °FFog.10 mph83%29.68 "Hg2 mi
8:00 PM64 °FFog.10 mph78%29.65 "Hg2 mi
7:00 PM64 °FFog.13 mph78%29.65 "Hg2 mi
6:00 PM66 °FFog.15 mph73%29.65 "Hg3 mi
Weather by CustomWeather, © 2015

See weather overviewHow to use our weather pages